Hourly Data Report for August 25, 2018

TORONTO CITY
ONTARIO
Current Station Operator: ECCC - MSC

43°40'00.000" N
79°24'00.000" W
112.50 m
6158355
71508
XTO

Download Data

Hourly Data (August 2018)
Hourly Data Report for August 25, 2018
TIME
LST
Temp Definition
°C
Dew Point Definition
°C
Rel Hum Definition
%
Precip. Amount Definition
mm

Wind Dir Definition
10's deg

Wind Spd Definition
km/h
Visibility Definition
km
Stn Press Definition
kPa
Hmdx Definition


Wind Chill Definition


Weather Definition


00:00 22.3 16.9 72 0.0 LegendMM LegendMM   100.62 28   LegendNANA
01:00 22.3 16.4 69 0.0 LegendMM LegendMM   100.60 27   LegendNANA
02:00 22.2 15.5 66 0.0 LegendMM LegendMM   100.59 26   LegendNANA
03:00 21.7 15.9 69 0.0 LegendMM LegendMM   100.61 26   LegendNANA
04:00 21.8 16.1 70 0.0 LegendMM LegendMM   100.61 26   LegendNANA
05:00 21.3 16.1 72 0.0 LegendMM LegendMM   100.59 26   LegendNANA
06:00 21.6 16.4 72 0.0 LegendMM LegendMM   100.61 26   LegendNANA
07:00 22.2 16.7 71 0.0 LegendMM LegendMM   100.58 27   LegendNANA
08:00 23.0 16.5 67 0.0 LegendMM LegendMM   100.55 28   LegendNANA
09:00 23.3 16.2 64 0.0 LegendMM LegendMM   100.54 28   LegendNANA
10:00 23.8 16.4 63 0.0 LegendMM LegendMM   100.57 29   LegendNANA
11:00 24.7 16.2 59 0.0 LegendMM LegendMM   100.54 29   LegendNANA
12:00 24.5 16.5 61 0.0 LegendMM LegendMM   100.53 29   LegendNANA
13:00 23.9 16.6 64 0.0 LegendMM LegendMM   100.53 29   LegendNANA
14:00 22.5 16.8 70 0.0 LegendMM LegendMM   100.53 28   LegendNANA
15:00 20.8 17.9 83 2.1 LegendMM LegendMM   100.49 27   LegendNANA
16:00 21.1 18.1 83 0.0 LegendMM LegendMM   100.43 27   LegendNANA
17:00 22.7 17.8 74 0.0 LegendMM LegendMM   100.39 29   LegendNANA
18:00 22.8 17.8 73 0.0 LegendMM LegendMM   100.36 29   LegendNANA
19:00 22.2 18.2 78 0.0 LegendMM LegendMM   100.33 28   LegendNANA
20:00 23.0 18.1 74 0.0 LegendMM LegendMM   100.34 29   LegendNANA
21:00 23.5 18.2 72 0.0 LegendMM LegendMM   100.32 30   LegendNANA
22:00 23.2 18.2 74 0.0 LegendMM LegendMM   100.30 29   LegendNANA
23:00 21.9 18.3 80 1.0 LegendMM LegendMM   100.29 28   LegendNANA

Notes on Data Quality.

Legend

  • E = Estimated
  • M = Missing
  • NA = Not Available*
  • [empty] = Indicates an unobserved value
Date modified: